Regional Weather Roundup
Issued by NWS Cleveland, OH

Home | Current Version | Previous Version | Graphics & Text | Print | Product List | Glossary On
Versions: 1 2 3 4 5 6 7 8 9 10 11 12 13 14 15 16 17 18 19 20 21 22 23 24 25 26 27 28 29 30 31 32 33 34 35 36 37 38 39 40 41 42 43 44 45 46 47 48 49 50
000
ASUS41 KCLE 301000
RWRCLE
OHIO REGIONAL WEATHER ROUNDUP
NATIONAL WEATHER SERVICE WILMINGTON, OH
600 AM EDT TUE SEP 30 2014

NOTE: "FAIR" INDICATES FEW OR NO CLOUDS BELOW 12,000 FEET WITH NO
SIGNIFICANT WEATHER AND/OR OBSTRUCTIONS TO VISIBILITY.

OHZ001>008-015>018-024>027-034-035-043-044-301100-
   NORTHWEST OHIO

CITY           SKY/WX    TMP DP  RH WIND       PRES   REMARKS
DEFIANCE       CLOUDY    60  56  86 NW13      29.93R
FINDLAY        CLOUDY    59  55  87 W3        29.89R
TOLEDO EXPRESS CLOUDY    56  54  93 N8        29.90S
TOLEDO METCALF CLOUDY    58  54  86 N8        29.91R
LIMA           MOCLDY    59  54  83 W7        29.91R
$$

OHZ009>014-019>023-028>033-038-089-301100-
   NORTHEAST OHIO

CITY           SKY/WX    TMP DP  RH WIND       PRES   REMARKS
CLE-HOPKINS    MOCLDY    57  54  89 SW6       29.90R
CLE-LAKEFRONT  MOCLDY    62  54  74 S7        29.86R
CUY CO. ARPT   NOT AVBL
LORAIN-ELYRIA  CLOUDY    60  54  80 W5        29.89R
ASHTABULA      PTCLDY    55  53  93 S3        29.89R FOG
AKRON-CANTON   CLEAR     56  51  84 CALM      29.89S
WOOSTER        NOT AVBL
MANSFIELD      CLEAR     56  51  84 S6        29.89S
YOUNGSTOWN     PTCLDY    58  54  86 S6        29.89R
$$

OHZ042-051>053-060>062-070>072-077>081-301100-
  SOUTHWEST OHIO

CITY           SKY/WX    TMP DP  RH WIND       PRES   REMARKS
CINC-COVINGTON CLEAR     56  51  84 CALM      29.92S
CINC-LUNKEN    CLEAR     52  51  97 CALM      29.93S
HAMILTON       CLEAR     51  50  96 CALM      29.93S
DAYTON         NOT AVBL
WRIGHT-PAT AFB PTCLDY    52  50  91 CALM      29.91S
DAYTON GENERAL PTCLDY    57  50  77 CALM      29.91S
WILMINGTON     CLEAR     51  48  89 S3        29.92S
$$

OHZ036-037-039>041-045>050-054>059-063>069-073>076-082>088-301100-
  CENTRAL AND SOUTHEAST OHIO

CITY           SKY/WX    TMP DP  RH WIND       PRES   REMARKS
COLUMBUS       CLEAR     54  50  86 CALM      29.90S
OSU AIRPORT    CLEAR     53  49  86 CALM      29.90S
BOLTON FIELD   NOT AVBL
RICKENBACK AFB NOT AVBL
NEWARK         CLEAR     47  45  93 CALM      29.90S
MARION         CLEAR     53  49  86 CALM      29.90R
LANCASTER      CLEAR     46  44  93 CALM      29.91R
ZANESVILLE     CLEAR     49  46  90 CALM      29.90S
NEW PHILLY     FOG       52  51  97 CALM      29.90S VSB 1/4
$$


USA.gov is the U.S. government's official web portal to all federal, state and local government web resources and services.